MIDAS 5 (STRONGBACK)

导读

MIDAS 5(代号STRONGBACK)是美国于1962年4月9日发射的导弹预警试验卫星,隶属于MIDAS(导弹防御警报系统)项目,该项目是美国早期导弹发射探测探索计划。卫星搭载红外探测设备,旨在通过捕捉火箭发射的热特征实现洲际导弹发射预警,为后续天基预警卫星技术积累了关键数据。作为冷战时期太空军事技术探索的产物,MIDAS系列卫星虽未正式投入作战部署,但为后续美国天基预警系统发展奠定了技术基础。

基本信息
目录编号:
271
目录名称:
MIDAS 5 (STRONGBACK)
国际标识:
1962-010A
轨道中心:
EARTH
卫星名称:
MIDAS 5 (STRONGBACK)
卫星全名:
--
卫星状态:
在轨 (已飞行23445 天)
发射日期:
1962-04-09 UTC
国别 :
美国 (US)
星等 :
--
轨道信息
数据来源 国际轨道数据 AOE轨道数据
星历时间 2026-06-17T00:19:16+0800
1天前
查看轨道信息
2026-06-17T07:00:00+0800
23小时前
查看轨道信息
半长轴 9475.029km 9475.034km
偏心率 0.0327841 0.0327815
轨道倾角 86.662° 86.664°
近地点辐角 30.348° 30.116°
升交点赤经 315.958° 315.918°
平近点角 331.597° 194.513°
近地点 2786.261km 2786.291km
远地点 3407.523km 3407.503km
周期 152.979分钟 152.979分钟
每日圈数 9.413085 9.413077
详细信息
使用方式:
暂无
2D轨道图
3D轨道图
轨道高度分析图
轨道倾角分析图
轨道综合分析图
查看轨道综合分析图